Home   Weather   Kãnpur   Past weeks

Flag for India Past Weather in Kãnpur, Uttar Pradesh, India — Yesterday and Last 2 Weeks

Now
91 °F

Broken clouds.


Feels Like: 111 °F
Forecast: 80 / 89 °F
Wind: 3 mph from East

Location: Lucknow / Amausi

Current Time: Jul 26, 2017 at 2:21:39 pm

Latest Report: Jul 26, 2017 at 1:30 pm


Visibility: 2 mi

Pressure: 29.47 "Hg

Humidity: 71%

Dew Point: 81 °F

Location of KãnpurLocation

Past Weather in Kãnpur — Graph

°F

Kãnpur Temperature Yesterday

Maximum temperature yesterday: 91 °F (at 12:00 pm)
Minimum temperature yesterday: 73 °F (at 8:00 am)
Average temperature yesterday: 84 °F

High & Low Weather Summary for the Past Weeks

 TemperatureHumidityPressure
High99 °F (Jul 16, 1:30 pm)100% (Jul 11, 9:00 pm)29.59 "Hg (Jul 11, 9:00 pm)
Low73 °F (Jul 25, 8:00 am)60% (Jul 16, 3:00 pm)29.39 "Hg (Jul 20, 3:30 pm)
Average87 °F86%29.51 "Hg
* Reported Jul 11 1:00 pm — Jul 26 1:00 pm, Kãnpur. Weather by CustomWeather, © 2017

Note: Actual official high and low records may vary slightly from our data, if they occured in-between our weather recording intervals... More about our weather records

Advertising

Kãnpur Weather History for the Previous 24 Hours

Scroll right to see more
 ConditionsComfort  
Time TempWeatherWind HumidityBarometerVisibility
1:00 pm
Wed, Jul 26
91 °FBroken clouds.9 mph71%29.47 "Hg2 mi
12:00 pm91 °FBroken clouds.7 mph71%29.53 "Hg2 mi
11:30 am91 °FBroken clouds.3 mph71%29.53 "Hg2 mi
11:00 am90 °FFog.9 mph75%29.56 "Hg2 mi
10:30 am90 °FFog.9 mph75%29.53 "Hg2 mi
10:00 am88 °FFog.3 mph79%29.56 "Hg2 mi
9:30 am88 °FFog.3 mph79%29.56 "Hg2 mi
9:00 am88 °FFog.3 mph79%29.53 "Hg2 mi
8:30 am84 °FFog.3 mph89%29.53 "Hg2 mi
8:00 am84 °FFog.No wind89%29.53 "Hg2 mi
7:30 am82 °FBroken clouds.No wind100%29.53 "Hg2 mi
7:00 am81 °FFog.No wind94%29.53 "Hg2 mi
6:30 am81 °FFog.No wind94%29.50 "Hg2 mi
5:30 am81 °FFog.No wind94%29.50 "Hg1 mi
5:00 am81 °FFog.No wind94%29.50 "Hg1 mi
4:00 am81 °FFog.No wind94%29.50 "Hg1 mi
3:00 am79 °FFog.No wind100%29.50 "Hg1 mi
2:00 am79 °FFog.No wind94%29.50 "Hg1 mi
12:00 am79 °FThunderstorms. Mostly cloudy.No wind94%29.53 "Hg1 mi
11:00 pm
Tue, Jul 25
79 °FThunderstorms. Mostly cloudy.No wind94%29.53 "Hg1 mi
10:00 pm82 °FThunderstorms. Mostly cloudy.No wind94%29.53 "Hg1 mi
9:00 pm82 °FLight rain. Mostly cloudy.5 mph94%29.53 "Hg1 mi
8:00 pm86 °FLight rain. Partly cloudy.No wind94%29.50 "Hg2 mi
7:00 pm86 °FFog.No wind89%29.47 "Hg2 mi
6:00 pm86 °FBroken clouds.No wind89%29.45 "Hg2 mi
4:30 pm88 °FBroken clouds.No wind84%29.45 "Hg2 mi
3:30 pm88 °FBroken clouds.No wind89%29.45 "Hg2 mi
3:00 pm88 °FBroken clouds.No wind89%29.45 "Hg2 mi
2:30 pm88 °FMore clouds than sun.2 mph89%29.47 "Hg2 mi
2:00 pm86 °FLight rain. More clouds than sun.2 mph94%29.47 "Hg1 mi
Weather by CustomWeather, © 2017

See weather overviewHow to use our weather pages